Flag for Germany Weather past 2 weeks in Gorleben, Lower Saxony, Germany

Now
52 °F

Drizzle. Low clouds.


Feels Like: 50 °F
Forecast: 40 / 44 °F
Wind: 7 mph from Southwest

Location: Marnitz

Current Time: Dec 19, 2014 at 6:03:23 AM

Latest Report: Dec 19, 2014 at 5:00 AM


Visibility: 3 mi

Pressure: 29.64 "Hg

Humidity: 96%

Dew point: 51 °F

Location of GorlebenLocation

Historic Weather in Gorleben — Graph

°F

Gorleben temperature yesterday

Maximum temperature yesterday: 53 °F (at 11:00 PM)
Minimum temperature yesterday: 41 °F (at 12:00 AM)
Average temperature yesterday: 48 °F

Past Weeks' High & Low Weather Summary

 TemperatureHumidityPressure
High53 °F (Dec 19, 12:00 AM)100% (Dec 5, 12:00 PM)30.33 "Hg (Dec 5, 12:00 PM)
Low30 °F (Dec 4, 4:00 AM)76% (Dec 15, 11:00 AM)29.23 "Hg (Dec 12, 5:00 PM)
Average38 °F92%29.88 "Hg
* Reported Dec 4 4:00 AM — Dec 19 4:00 AM, Gorleben, Weather by CustomWeather, © 2014

Note: Actual official high and low records may vary slightly from our data, if they occured in-between our weather recording intervals... More about our weather records

Advertising

Gorleben weather history for previous 24 hours

 ConditionsComfort  
Time TempWeatherWind HumidityBarometerVisibility
4:00 AM
Dec 19
52 °FDrizzle. Low clouds.6 mph97%29.65 "Hg3 mi
3:00 AM52 °FLight rain. Low clouds.7 mph96%29.64 "Hg14 mi
2:00 AM52 °FLight freezing rain. Low clouds.7 mph96%29.65 "Hg6 mi
1:00 AM52 °FLight freezing rain. Low clouds.8 mph97%29.64 "Hg4 mi
12:00 AM53 °FDrizzle. Overcast.8 mph93%29.63 "Hg9 mi
11:00 PM
Dec 18
53 °FDrizzle. Low clouds.7 mph97%29.62 "Hg3 mi
10:00 PM52 °FDrizzle. Low clouds.7 mph97%29.61 "Hg2 mi
9:00 PM52 °FLight freezing rain. Low clouds.7 mph97%29.61 "Hg2 mi
8:00 PM51 °FLight freezing rain. Low clouds.6 mph97%29.61 "Hg2 mi
7:00 PM51 °FDrizzle. Low clouds.6 mph97%29.62 "Hg2 mi
6:00 PM51 °FDrizzle. Low clouds.6 mph96%29.63 "Hg3 mi
5:00 PM51 °FLow clouds.6 mph95%29.64 "Hg7 mi
4:00 PM50 °FLow clouds.5 mph96%29.66 "Hg6 mi
3:00 PM50 °FDrizzle. Low clouds.5 mph97%29.67 "Hg5 mi
2:00 PM50 °FLow clouds.5 mph96%29.68 "Hg3 mi
1:00 PM50 °FLow clouds.6 mph96%29.69 "Hg4 mi
12:00 PM49 °FDrizzle. Low clouds.6 mph97%29.71 "Hg2 mi
11:00 AM48 °FLow clouds.6 mph98%29.73 "Hg3 mi
10:00 AM47 °FDrizzle. Low clouds.5 mph97%29.72 "Hg1 mi
9:00 AM47 °FFog.5 mph96%29.74 "Hg3 mi
8:00 AM46 °FFog.3 mph96%29.73 "Hg4 mi
7:00 AM46 °FFog.5 mph95%29.73 "Hg4 mi
6:00 AM44 °FLow clouds.5 mph97%29.72 "Hg6 mi
Weather by CustomWeather, © 2014

See weather overviewHow to use our weather pages